CFG1CA EDDL-LEPA

Flight info

Callsign CFG1CA
Flight time 2h 3m
Altitude FL240
Route MODRU Z283 SOPOK ROUSY GTQ POGOL LASAT MOROK GILIR GEVEA INCUS BALSI RETNO TUPOX MTG DIVKO VATIR N852 VERSO L129 LUNIK
Aircraft A320/M-SDE2E3FGHIRWXY/LB1

Departure

Time 2026-05-04 06:48
Airport Düsseldorf Airport (EDDL)

Arrival

Time 2026-05-04 08:52
Airport Palma de Mallorca Airport (LEPA)
Time Latitude Longitude Altitude Speed Heading
2026-05-04 06:22 51.28041 6.76368 150 ft 0 kts 197°
2026-05-04 06:40 51.28070 6.76444 150 ft 0 kts 328°
2026-05-04 06:44 51.28340 6.76493 150 ft 14 kts 21°
2026-05-04 06:44 51.28416 6.76628 150 ft 21 kts 57°
2026-05-04 06:44 51.28518 6.76848 150 ft 29 kts 52°
2026-05-04 06:45 51.28645 6.77125 150 ft 33 kts 51°
2026-05-04 06:45 51.28785 6.77397 150 ft 31 kts 51°
2026-05-04 06:45 51.28905 6.77664 150 ft 30 kts 58°
2026-05-04 06:45 51.29024 6.77914 150 ft 28 kts 50°
2026-05-04 06:46 51.29140 6.78154 150 ft 27 kts 52°
2026-05-04 06:46 51.29252 6.78385 150 ft 26 kts 55°
2026-05-04 06:46 51.29378 6.78562 150 ft 24 kts
2026-05-04 06:46 51.29508 6.78488 151 ft 18 kts 266°
2026-05-04 06:48 51.25745 6.70542 2558 ft 167 kts 234°
2026-05-04 06:48 51.25095 6.69084 3213 ft 164 kts 235°
2026-05-04 06:49 51.24444 6.67648 3804 ft 164 kts 234°
2026-05-04 06:50 51.27494 6.57844 7687 ft 175 kts 318°
2026-05-04 06:51 51.28452 6.56638 8218 ft 176 kts 317°
2026-05-04 06:51 51.29421 6.55409 8701 ft 180 kts 316°
2026-05-04 06:51 51.30416 6.54131 9088 ft 191 kts 316°
2026-05-04 06:51 51.31510 6.52721 9431 ft 205 kts 316°
2026-05-04 06:52 51.32591 6.51328 9751 ft 219 kts 317°
2026-05-04 06:52 51.33745 6.49843 10030 ft 235 kts 317°
2026-05-04 06:52 51.35042 6.48172 10258 ft 256 kts 317°
2026-05-04 06:52 51.36448 6.46367 10628 ft 272 kts 317°
2026-05-04 06:53 51.37896 6.44453 10979 ft 286 kts 311°
2026-05-04 06:53 51.38922 6.42003 11469 ft 285 kts 286°
2026-05-04 06:53 51.39163 6.38966 12165 ft 281 kts 262°
2026-05-04 06:53 51.38676 6.36295 12770 ft 281 kts 241°
2026-05-04 06:54 51.37568 6.34058 13369 ft 283 kts 223°
2026-05-04 06:54 51.36108 6.31939 14023 ft 286 kts 222°
2026-05-04 06:54 51.34630 6.29802 14654 ft 289 kts 223°
2026-05-04 06:54 51.33049 6.27800 15270 ft 292 kts 214°
2026-05-04 06:55 51.31344 6.26293 15785 ft 298 kts 205°
2026-05-04 06:55 51.29513 6.25130 16044 ft 312 kts 202°
2026-05-04 06:55 51.27536 6.23981 16281 ft 325 kts 201°
2026-05-04 06:55 51.25446 6.22781 16515 ft 338 kts 201°
2026-05-04 06:56 51.23272 6.21526 16740 ft 351 kts 201°
2026-05-04 06:57 51.05856 6.11400 18546 ft 409 kts 201°
2026-05-04 06:58 51.03249 6.09725 18955 ft 411 kts 205°
2026-05-04 06:58 51.00703 6.07780 19373 ft 412 kts 208°
2026-05-04 06:58 50.98236 6.05565 19788 ft 413 kts 212°
2026-05-04 06:58 50.95826 6.03182 20210 ft 413 kts 212°
2026-05-04 06:59 50.93376 6.00883 20598 ft 415 kts 210°
2026-05-04 06:59 50.90842 5.98715 20966 ft 417 kts 209°
2026-05-04 06:59 50.88314 5.96557 21327 ft 418 kts 209°
2026-05-04 06:59 50.85805 5.94418 21702 ft 419 kts 209°
2026-05-04 07:01 50.67785 5.78928 24041 ft 426 kts 210°
2026-05-04 07:01 50.65175 5.76686 24326 ft 428 kts 210°
2026-05-04 07:02 50.62556 5.74457 24588 ft 430 kts 208°
2026-05-04 07:02 50.59753 5.72742 24824 ft 434 kts 198°
2026-05-04 07:02 50.56786 5.71901 25070 ft 438 kts 188°
2026-05-04 07:02 50.53755 5.71934 25371 ft 442 kts 178°
2026-05-04 07:03 50.50724 5.72479 25769 ft 440 kts 177°
2026-05-04 07:03 50.47705 5.73078 26157 ft 438 kts 176°
2026-05-04 07:03 50.44684 5.73681 26482 ft 438 kts 177°
2026-05-04 07:03 50.41679 5.74268 26813 ft 436 kts 177°
2026-05-04 07:04 50.38677 5.74849 27118 ft 436 kts 177°
2026-05-04 07:04 50.35662 5.75425 27433 ft 435 kts 177°
2026-05-04 07:04 50.32665 5.75996 27771 ft 434 kts 177°
2026-05-04 07:04 50.29670 5.76565 28089 ft 433 kts 177°
2026-05-04 07:05 50.26686 5.77270 28383 ft 434 kts 175°
2026-05-04 07:05 50.23720 5.78210 28691 ft 435 kts 172°
2026-05-04 07:05 50.20791 5.79386 29032 ft 436 kts 169°
2026-05-04 07:05 50.17870 5.80701 29309 ft 436 kts 169°
2026-05-04 07:06 50.12061 5.83281 29884 ft 435 kts 169°
2026-05-04 07:06 50.09163 5.84564 30167 ft 434 kts 169°
2026-05-04 07:06 50.06280 5.85839 30475 ft 433 kts 169°
2026-05-04 07:07 50.03393 5.87115 30744 ft 433 kts 169°
2026-05-04 07:08 49.83207 5.96008 32397 ft 430 kts 169°
2026-05-04 07:09 49.80345 5.97265 32659 ft 429 kts 169°
2026-05-04 07:09 49.77500 5.98513 32915 ft 428 kts 169°
2026-05-04 07:09 49.74653 5.99758 33152 ft 427 kts 169°
2026-05-04 07:09 49.71806 6.01002 33376 ft 427 kts 169°
2026-05-04 07:10 49.68969 6.02241 33601 ft 426 kts 169°
2026-05-04 07:10 49.66136 6.03477 33820 ft 426 kts 169°
2026-05-04 07:12 49.46673 6.13990 35160 ft 432 kts 156°
2026-05-04 07:12 49.44100 6.16356 35299 ft 435 kts 152°
2026-05-04 07:12 49.41611 6.18982 35413 ft 438 kts 148°
2026-05-04 07:12 49.39212 6.21855 35529 ft 440 kts 146°
2026-05-04 07:13 49.36849 6.24793 35652 ft 440 kts 146°
2026-05-04 07:13 49.34474 6.27746 35772 ft 440 kts 146°
2026-05-04 07:13 49.32099 6.30687 35884 ft 441 kts 146°
2026-05-04 07:14 49.22577 6.42423 36257 ft 442 kts 146°
2026-05-04 07:14 49.20187 6.45356 36329 ft 443 kts 146°
2026-05-04 07:15 49.15401 6.51218 36461 ft 444 kts 146°
2026-05-04 07:15 49.10588 6.57100 36559 ft 446 kts 146°
2026-05-04 07:16 49.05751 6.62954 36749 ft 444 kts 148°
2026-05-04 07:16 49.00486 6.67623 36876 ft 437 kts 161°
2026-05-04 07:17 48.94768 6.70388 36977 ft 431 kts 173°
2026-05-04 07:17 48.88852 6.71232 36981 ft 426 kts 184°
2026-05-04 07:18 48.82937 6.71011 36982 ft 426 kts 185°
2026-05-04 07:18 48.77036 6.70761 36987 ft 426 kts 185°
2026-05-04 07:19 48.71139 6.70527 36996 ft 426 kts 185°
2026-05-04 07:19 48.65232 6.70298 36999 ft 426 kts 185°
2026-05-04 07:20 48.59324 6.70074 37000 ft 427 kts 185°
2026-05-04 07:20 48.53408 6.69851 37003 ft 427 kts 185°
2026-05-04 07:22 48.29789 6.68950 37007 ft 426 kts 185°
2026-05-04 07:23 48.23881 6.68724 37005 ft 426 kts 185°
2026-05-04 07:23 48.17985 6.68501 37011 ft 425 kts 185°
2026-05-04 07:24 48.12091 6.68273 37014 ft 426 kts 185°
2026-05-04 07:24 48.06186 6.68044 37009 ft 426 kts 185°
2026-05-04 07:26 47.82584 6.67152 37009 ft 426 kts 185°
2026-05-04 07:27 47.76674 6.66930 37009 ft 426 kts 184°
2026-05-04 07:27 47.70772 6.66710 37009 ft 427 kts 185°
2026-05-04 07:28 47.64860 6.66490 37013 ft 426 kts 185°
2026-05-04 07:28 47.58960 6.66271 37012 ft 426 kts 184°
2026-05-04 07:29 47.53057 6.66052 37012 ft 426 kts 185°
2026-05-04 07:29 47.47157 6.65647 37017 ft 424 kts 190°
2026-05-04 07:30 47.41455 6.63753 37006 ft 421 kts 201°
2026-05-04 07:30 47.36148 6.60223 37006 ft 420 kts 211°
2026-05-04 07:31 47.31432 6.55244 37014 ft 419 kts 220°
2026-05-04 07:33 47.13754 6.33142 37004 ft 419 kts 219°
2026-05-04 07:33 47.08954 6.28346 36994 ft 420 kts 210°
2026-05-04 07:34 47.03641 6.24892 36999 ft 422 kts 200°
2026-05-04 07:34 46.97947 6.22880 36999 ft 425 kts 190°
2026-05-04 07:35 46.92079 6.22008 37007 ft 426 kts 187°
2026-05-04 07:35 46.86198 6.21240 37008 ft 426 kts 187°
2026-05-04 07:36 46.80322 6.20467 37008 ft 425 kts 187°
2026-05-04 07:38 46.56828 6.17352 37014 ft 425 kts 187°
2026-05-04 07:38 46.50936 6.16573 37011 ft 425 kts 187°
2026-05-04 07:39 46.45077 6.15802 37010 ft 425 kts 187°
2026-05-04 07:39 46.39477 6.15066 37019 ft 425 kts 188°
2026-05-04 07:40 46.33818 6.14323 37033 ft 425 kts 187°
2026-05-04 07:40 46.28028 6.13567 37035 ft 425 kts 188°
2026-05-04 07:41 46.22256 6.12515 37039 ft 424 kts 191°
2026-05-04 07:41 46.16528 6.11235 37039 ft 423 kts 191°
2026-05-04 07:42 46.10887 6.09986 37035 ft 424 kts 191°
2026-05-04 07:42 46.05174 6.08721 37035 ft 423 kts 191°
2026-05-04 07:43 45.99438 6.07453 37044 ft 423 kts 191°
2026-05-04 07:43 45.93664 6.06179 37045 ft 423 kts 191°
2026-05-04 07:44 45.87900 6.04910 37041 ft 424 kts 191°
2026-05-04 07:44 45.82146 6.03640 37038 ft 424 kts 191°
2026-05-04 07:45 45.76406 6.02369 37036 ft 423 kts 191°
2026-05-04 07:45 45.70690 6.01107 37043 ft 424 kts 191°
2026-05-04 07:46 45.64978 5.99851 37038 ft 423 kts 191°
2026-05-04 07:46 45.59272 5.98599 37036 ft 423 kts 191°
2026-05-04 07:47 45.53522 5.97341 37038 ft 424 kts 191°
2026-05-04 07:49 45.30696 5.90742 37062 ft 424 kts 194°
2026-05-04 07:49 45.25035 5.88982 37054 ft 423 kts 194°
2026-05-04 07:50 45.19348 5.87216 37062 ft 423 kts 194°
2026-05-04 07:50 45.13683 5.85461 37068 ft 423 kts 194°
2026-05-04 07:51 45.07979 5.83696 37062 ft 423 kts 194°
2026-05-04 07:51 45.02271 5.81934 37063 ft 423 kts 194°
2026-05-04 07:52 44.96558 5.80177 37052 ft 423 kts 195°
2026-05-04 07:52 44.90831 5.78415 37076 ft 424 kts 194°
2026-05-04 07:54 44.68135 5.71477 37059 ft 425 kts 195°
2026-05-04 07:55 44.62320 5.69709 37051 ft 425 kts 195°
2026-05-04 07:55 44.56507 5.67947 37053 ft 425 kts 195°
2026-05-04 07:56 44.50676 5.66179 37047 ft 425 kts 195°
2026-05-04 07:56 44.44875 5.64428 37048 ft 425 kts 195°
2026-05-04 07:57 44.39077 5.62515 37036 ft 424 kts 199°
2026-05-04 07:57 44.33471 5.59862 37031 ft 423 kts 204°
2026-05-04 07:58 44.27970 5.56841 37029 ft 423 kts 204°
2026-05-04 07:58 44.22489 5.53851 37041 ft 422 kts 204°
2026-05-04 07:59 44.16971 5.50842 37025 ft 422 kts 205°
2026-05-04 07:59 44.11483 5.47851 37036 ft 422 kts 205°
2026-05-04 08:00 44.05976 5.44859 37024 ft 423 kts 205°
2026-05-04 08:02 43.84144 5.33035 37027 ft 423 kts 204°
2026-05-04 08:02 43.78684 5.30093 37016 ft 423 kts 204°
2026-05-04 08:03 43.73245 5.27165 37023 ft 422 kts 204°
2026-05-04 08:03 43.67795 5.24240 37015 ft 422 kts 204°
2026-05-04 08:04 43.62361 5.21329 37009 ft 421 kts 204°
2026-05-04 08:04 43.56949 5.18436 37008 ft 421 kts 205°
2026-05-04 08:05 43.51600 5.15582 37000 ft 421 kts 205°
2026-05-04 08:05 43.46221 5.12718 37008 ft 420 kts 205°
2026-05-04 08:06 43.40913 5.09654 37000 ft 419 kts 209°
2026-05-04 08:06 43.35845 5.05902 36995 ft 416 kts 214°
2026-05-04 08:08 43.16661 4.88018 36982 ft 411 kts 217°
2026-05-04 08:11 42.94374 4.69170 36978 ft 413 kts 213°
2026-05-04 08:11 42.86822 4.63454 36973 ft 412 kts 213°
2026-05-04 08:12 42.81826 4.59683 36967 ft 410 kts 213°
2026-05-04 08:12 42.76850 4.55933 36968 ft 409 kts 213°
2026-05-04 08:13 42.71883 4.52198 36971 ft 409 kts 213°
2026-05-04 08:13 42.66931 4.48482 36976 ft 408 kts 213°
2026-05-04 08:14 42.61962 4.44764 36974 ft 407 kts 213°
2026-05-04 08:16 42.42151 4.29988 36966 ft 405 kts 213°
2026-05-04 08:16 42.37163 4.26286 36970 ft 405 kts 213°
2026-05-04 08:17 42.32186 4.22598 36964 ft 405 kts 213°
2026-05-04 08:17 42.27179 4.18897 36963 ft 404 kts 213°
2026-05-04 08:19 42.07614 4.04496 36952 ft 401 kts 213°
2026-05-04 08:20 42.02714 4.00909 36958 ft 400 kts 213°
2026-05-04 08:20 41.97613 3.97341 36955 ft 402 kts 210°
2026-05-04 08:21 41.92319 3.94444 36951 ft 405 kts 205°
2026-05-04 08:21 41.86814 3.92264 36953 ft 411 kts 200°
2026-05-04 08:22 41.81070 3.90778 36953 ft 412 kts 196°
2026-05-04 08:24 41.57957 3.85430 36953 ft 410 kts 197°
2026-05-04 08:24 41.52336 3.84137 36957 ft 411 kts 197°
2026-05-04 08:25 41.46728 3.82851 36960 ft 410 kts 197°
2026-05-04 08:25 41.41109 3.81564 36963 ft 410 kts 197°
2026-05-04 08:27 41.18273 3.76278 36971 ft 406 kts 200°
2026-05-04 08:28 41.12725 3.74242 36967 ft 401 kts 205°
2026-05-04 08:28 41.07440 3.71611 36964 ft 399 kts 207°
2026-05-04 08:29 41.04835 3.70272 36586 ft 402 kts 207°
2026-05-04 08:29 41.02192 3.68916 36027 ft 399 kts 207°
2026-05-04 08:29 40.99578 3.67577 35481 ft 396 kts 207°
2026-05-04 08:31 40.81887 3.58518 29600 ft 383 kts 206°
2026-05-04 08:33 40.64056 3.49423 23446 ft 403 kts 205°
2026-05-04 08:33 40.61457 3.48106 22747 ft 402 kts 205°
2026-05-04 08:35 40.43367 3.39717 18194 ft 396 kts 192°
2026-05-04 08:35 40.40616 3.39452 17515 ft 400 kts 184°
2026-05-04 08:35 40.37844 3.39545 16877 ft 400 kts 182°
2026-05-04 08:35 40.35078 3.39707 16269 ft 398 kts 181°
2026-05-04 08:37 40.18946 3.40666 13227 ft 363 kts 180°
2026-05-04 08:37 40.16468 3.40811 12985 ft 350 kts 180°
2026-05-04 08:37 40.14080 3.40949 12738 ft 339 kts 180°
2026-05-04 08:38 40.11750 3.41083 12449 ft 329 kts 181°
2026-05-04 08:38 40.09446 3.41214 12273 ft 317 kts 181°
2026-05-04 08:38 40.07237 3.41339 12116 ft 304 kts 181°
2026-05-04 08:40 39.95405 3.33716 9916 ft 269 kts 219°
2026-05-04 08:40 39.93959 3.32233 9574 ft 267 kts 219°
2026-05-04 08:40 39.92517 3.30754 9226 ft 266 kts 218°
2026-05-04 08:41 39.91078 3.29284 8882 ft 265 kts 218°
2026-05-04 08:41 39.89681 3.27859 8512 ft 257 kts 218°
2026-05-04 08:41 39.88334 3.26484 8178 ft 246 kts 218°
2026-05-04 08:41 39.87048 3.25172 7917 ft 239 kts 218°
2026-05-04 08:42 39.85787 3.23888 7656 ft 234 kts 218°
2026-05-04 08:42 39.84559 3.22638 7425 ft 228 kts 218°
2026-05-04 08:42 39.83356 3.21414 7190 ft 224 kts 218°
2026-05-04 08:42 39.82174 3.20214 6916 ft 222 kts 217°
2026-05-04 08:43 39.80994 3.19015 6639 ft 221 kts 217°
2026-05-04 08:43 39.79814 3.17816 6285 ft 221 kts 217°
2026-05-04 08:43 39.78591 3.16576 5941 ft 228 kts 217°
2026-05-04 08:43 39.77360 3.15329 5693 ft 223 kts 217°
2026-05-04 08:44 39.76156 3.14109 5451 ft 219 kts 217°
2026-05-04 08:44 39.74983 3.12922 5152 ft 219 kts 217°
2026-05-04 08:46 39.68189 3.02854 3737 ft 205 kts 238°
2026-05-04 08:46 39.67487 3.01318 3564 ft 200 kts 238°
2026-05-04 08:46 39.66788 2.99824 3401 ft 197 kts 237°
2026-05-04 08:46 39.66093 2.98359 3319 ft 188 kts 237°
2026-05-04 08:47 39.65423 2.96954 3132 ft 180 kts 237°
2026-05-04 08:47 39.64762 2.95573 3005 ft 182 kts 237°
2026-05-04 08:47 39.64096 2.94183 3006 ft 183 kts 237°
2026-05-04 08:47 39.63431 2.92792 2913 ft 184 kts 237°
2026-05-04 08:48 39.62763 2.91393 2684 ft 183 kts 237°
2026-05-04 08:48 39.62104 2.90008 2450 ft 182 kts 237°
2026-05-04 08:48 39.61451 2.88635 2229 ft 173 kts 237°
2026-05-04 08:48 39.60852 2.87371 2001 ft 158 kts 237°
2026-05-04 08:49 39.60302 2.86213 1767 ft 146 kts 237°
2026-05-04 08:50 39.57264 2.79797 771 ft 145 kts 237°
2026-05-04 08:50 39.56755 2.78695 518 ft 144 kts 237°
2026-05-04 08:51 39.56245 2.77629 345 ft 139 kts 236°
2026-05-04 08:51 39.55755 2.76618 173 ft 133 kts 236°
2026-05-04 08:51 39.55306 2.75669 48 ft 123 kts 237°
2026-05-04 08:51 39.54939 2.74895 46 ft 81 kts 239°
2026-05-04 08:52 39.54809 2.74436 46 ft 37 kts 268°
2026-05-04 08:52 39.54804 2.74319 46 ft 12 kts 266°
2026-05-04 08:52 39.54801 2.74243 46 ft 6 kts 266°
2026-05-04 08:52 39.54798 2.74191 46 ft 7 kts 266°
2026-05-04 08:53 39.54794 2.74126 46 ft 8 kts 251°
2026-05-04 08:54 39.54740 2.73921 45 ft 0 kts 328°
2026-05-04 08:55 39.54740 2.73920 45 ft 0 kts 328°
2026-05-04 08:55 39.54750 2.73916 45 ft 4 kts 352°
2026-05-04 08:55 39.54786 2.73948 46 ft 9 kts 60°
2026-05-04 08:57 39.55139 2.73770 46 ft 4 kts 329°
2026-05-04 09:01 39.55050 2.73534 47 ft 0 kts 166°